EST,Max TemperatureF,Mean TemperatureF,Min TemperatureF,Max Dew PointF,MeanDew PointF,Min DewpointF,Max Humidity, Mean Humidity, Min Humidity, Max Sea Level PressureIn, Mean Sea Level PressureIn, Min Sea Level PressureIn, Max VisibilityMiles, Mean VisibilityMiles, Min VisibilityMiles, Max Wind SpeedMPH, Mean Wind SpeedMPH, Max Gust SpeedMPH,PrecipitationIn, CloudCover, Events, WindDirDegrees
2012-1-1,55,42,29,43,33,22,92,66,40,30.12,29.95,29.71,10,8,2,33,8,41,0.01,3,Rain,206
2012-1-2,44,36,27,25,15,9,61,47,32,29.97,29.92,29.86,10,10,9,31,13,38,T,6,,265
2012-1-3,29,22,15,14,7,-4,58,42,26,30.29,30.10,29.96,10,9,2,33,15,45,T,4,Snow,310
2012-1-4,29,20,11,15,8,-1,73,58,42,30.30,30.16,29.99,10,10,9,12,3,15,0.00,1,,177
2012-1-5,47,34,20,23,20,16,69,52,34,30.03,29.98,29.94,10,10,9,22,6,25,0.00,3,,258
2012-1-6,64,46,27,28,25,19,69,48,26,29.94,29.87,29.80,10,10,8,14,3,18,0.00,0,,195
2012-1-7,66,50,33,39,27,19,70,48,26,30.09,29.88,29.79,10,10,10,25,9,33,0.00,1,,243
2012-1-8,47,37,27,28,24,20,70,56,41,30.35,30.25,30.11,10,10,10,15,6,28,0.00,1,,301
2012-1-9,39,32,25,29,25,19,88,69,50,30.34,30.19,30.04,10,10,3,13,2,17,0.00,6,,159
2012-1-10,54,40,25,32,27,23,100,68,35,30.05,30.01,29.97,10,5,0,16,5,23,0.00,1,Fog,222
2012-1-11,42,33,23,40,34,21,100,88,75,30.03,29.83,29.59,10,4,1,12,3,20,0.79,6,Rain,12
2012-1-12,56,48,39,46,41,37,100,83,66,29.55,29.47,29.34,10,7,0,15,3,20,0.05,7,Fog-Rain,295
2012-1-13,48,36,24,39,16,9,93,66,39,29.97,29.69,29.34,10,10,6,35,20,46,0.10,4,Rain,261
2012-1-14,34,29,24,12,11,10,60,50,39,30.17,30.09,29.98,10,10,10,22,11,30,0.00,1,,279
2012-1-15,33,26,18,12,9,5,73,53,32,30.58,30.42,30.18,10,10,10,13,5,25,0.00,1,,312
2012-1-16,40,27,14,32,18,10,82,63,43,30.56,30.38,30.10,10,9,7,17,5,25,0.08,2,Rain,172
2012-1-17,60,49,38,44,38,29,83,66,49,30.07,29.82,29.65,10,10,9,30,10,38,0.08,6,Rain,197
2012-1-18,52,35,18,29,18,10,73,55,37,30.20,30.06,29.81,10,10,6,30,11,40,T,4,Snow,304
2012-1-19,40,27,14,26,14,10,88,63,38,30.21,30.07,29.91,10,10,9,17,5,22,0.00,2,,198
2012-1-20,37,30,22,26,14,5,88,62,35,30.31,30.19,29.98,10,8,1,17,7,21,0.09,5,Snow,41
2012-1-21,32,29,25,27,24,21,92,82,72,30.32,30.05,29.94,10,6,2,13,5,15,0.30,8,Rain-Snow,45
2012-1-22,30,28,25,28,24,19,92,84,75,30.46,30.39,30.32,10,6,2,8,2,10,T,8,Snow,55
2012-1-23,45,38,30,41,33,28,100,95,89,30.33,30.06,29.83,10,3,0,12,4,17,0.04,6,Fog-Rain,103
2012-1-24,55,42,29,36,32,28,100,71,41,30.24,30.03,29.89,10,5,0,21,6,25,0.00,1,Fog,271
2012-1-25,48,40,32,31,28,26,75,63,50,30.38,30.30,30.19,10,8,1,16,4,20,0.00,1,,9
2012-1-26,40,39,37,38,35,30,100,82,64,30.18,29.97,29.71,8,3,1,7,4,9,0.24,8,Rain,16
2012-1-27,59,49,39,50,38,25,100,76,52,30.02,29.63,29.46,10,5,1,31,11,39,0.26,7,Rain,278
2012-1-28,53,42,30,30,23,6,85,57,29,30.19,30.04,29.91,10,10,9,35,9,43,0.00,1,,234
2012-1-29,46,38,30,30,16,8,75,51,27,30.27,30.17,30.04,10,9,1,32,10,40,0.03,3,Snow,235
2012-1-30,44,35,25,21,17,10,78,53,27,30.40,30.28,30.18,10,10,10,18,6,24,0.00,2,,227
2012-1-31,68,51,33,29,25,21,64,42,19,30.21,30.12,30.03,10,10,10,18,6,22,0.00,2,,183